Regional Weather Roundup
Issued by NWS

Home | Current Version | Previous Version | Text Only | Print | Product List | Glossary On
Versions: 1 2 3 4 5 6 7 8 9 10 11 12 13 14 15 16 17 18 19 20 21 22 23 24 25 26 27 28 29 30 31 32 33 34 35 36 37 38 39 40 41 42 43 44 45 46 47 48 49 50
000
ASUS43 KOAX 232210
RWRNE

WEATHER ROUNDUP FOR NEBRASKA
NATIONAL WEATHER SERVICE OMAHA NE
500 PM CDT FRI JUN 23 2017

NOTES: SATELLITE DATA IS BEING USED TO AUGMENT CLOUD COVER ABOVE
       12000 FEET.
       "FAIR" INDICATES FEW OR NO CLOUDS BELOW 12,000 FEET WITH NO
       SIGNIFICANT WEATHER AND/OR OBSTRUCTIONS TO VISIBILITY.

  * THESE STATIONS DO NOT REPORT WEATHER SUCH AS RAIN...SNOW OR FOG.

NEZ001>004-019>022-054>056-232300-
NEBRASKA PANHANDLE

CITY           SKY/WX    TMP DP  RH WIND       PRES   REMARKS
SCOTTSBLUFF    SUNNY     74  34  23 NW13G22   30.17F
ALLIANCE       SUNNY     73  29  19 NW16      30.16S
CHADRON        SUNNY     73  28  18 NW17G26   30.14S
GORDON         FAIR      69  40  34 N10G16    30.15S
KIMBALL        SUNNY     69  40  34 NW9       30.23S
SIDNEY         SUNNY     72  37  28 NW8       30.20F
$$

NEZ057>060-069>072-079>082-232300-
SOUTHWEST NEBRASKA

CITY           SKY/WX    TMP DP  RH WIND       PRES   REMARKS
NORTH PLATTE   SUNNY     78  40  25 NW17G25   30.11S
IMPERIAL       PTSUNNY   75  33  21 W10       30.15F
LEXINGTON      MOSUNNY   76  43  31 NW13G21   30.09F
MCCOOK         PTSUNNY   80  38  22 NW15      30.10F
OGALLALA       SUNNY     78  32  19 NW12G20   30.14F
$$

NEZ005>010-023>029-035>040-094-232300-
NORTH CENTRAL NEBRASKA

CITY           SKY/WX    TMP DP  RH WIND       PRES   REMARKS
VALENTINE      MOSUNNY   74  33  22 N18G26    30.11F
AINSWORTH      PTSUNNY   70  40  32 N16G28    30.11F
BROKEN BOW     MOSUNNY   73  43  33 N14G23    30.10S
O`NEILL        PTSUNNY   71  42  35 NW18G24   30.07S
ORD            PTSUNNY   73  43  33 NW16      30.07F
THEDFORD       MOSUNNY   72  40  31 N15G22    30.14S
$$

NEZ041-046>049-061>064-073>077-083>087-232300-
SOUTH CENTRAL NEBRASKA

CITY           SKY/WX    TMP DP  RH WIND       PRES   REMARKS
GRAND ISLAND   MOSUNNY   77  46  33 N21G26    30.06S
AURORA         MOSUNNY   74  45  35 N16G24    30.05S
HASTINGS       MOSUNNY   77  44  30 N14G24    30.07F
HEBRON         MOSUNNY   79  46  31 NW14G22   30.03F
HOLDREGE       SUNNY     75  42  30 NW12G20   30.08S
KEARNEY *      MOSUNNY   77  43  29 NW17G24   30.08S
YORK           PTSUNNY   75  46  35 N15G22    30.04S
$$

NEZ011>018-030>034-042>045-232300-
NORTHEAST NEBRASKA

CITY           SKY/WX    TMP DP  RH WIND       PRES   REMARKS
NORFOLK        PTSUNNY   71  47  42 NW16      30.03R
ALBION         PTSUNNY   71  44  38 NW16G23   30.06S
BLAIR          PTSUNNY   73  50  45 N14G25    29.98S
FREMONT        PTSUNNY   73  48  41 NW17G25   30.01S
TEKAMAH        MOSUNNY   74  46  36 NW22G28   29.98S
WAYNE          PTSUNNY   71  47  41 NW12G25   30.02S
$$

NEZ050>053-065>068-078-088>093-232300-
SOUTHEAST NEBRASKA

CITY           SKY/WX    TMP DP  RH WIND       PRES   REMARKS
LINCOLN        PTSUNNY   77  50  38 NW14G22   30.02S
OMAHA EPPLEY   PTSUNNY   75  49  39 NW20G26   29.97S
BEATRICE       MOSUNNY   77  52  41 N16G23    30.02S
FALLS CITY     SUNNY     74  54  49 NW16G23   29.98F
NEBRASKA CITY  MOSUNNY   74  54  50 N16G22    30.00F
PLATTSMOUTH    PTSUNNY   73  51  46 NW10      30.00S
$$

NEZ044-045-051>053-067-232300-
OMAHA AREA

CITY           SKY/WX    TMP DP  RH WIND       PRES   REMARKS
OMAHA EPPLEY   PTSUNNY   75  49  39 NW20G26   29.97S
BLAIR          PTSUNNY   73  50  45 N14G25    29.98S
FREMONT        PTSUNNY   73  48  41 NW17G25   30.01S
MILLARD        PTSUNNY   75  51  42 NW12G23   29.99S
OFFUTT AFB     PTSUNNY   76  51  42 NW12G20   29.98F
PLATTSMOUTH    PTSUNNY   73  51  46 NW10      30.00S
WAHOO          MOCLDY    75  46  34 NW16      30.00S
$$




USA.gov is the U.S. government's official web portal to all federal, state and local government web resources and services.